Content
SEND FEEDBACK

Daily
Averages
Monthly
Summary
United States of America

DEFUNIAK SPRINGS, FLORIDA


Home > North America > United States > Florida
Elevation: 184 feet     Latitude: 30 44N     Longitude: 086 07W

WEATHER
 
SELECT A DAY
Number of Records: 96,943;   Date Range: 5/11/06 - 10/19/14
 
SHARE

PRINT THIS DATA

[ ← Previous Day ]
WEATHER ALMANAC - FEBRUARY 13, 2013
[ Next Day → ]
[ °C ]   °F
Weather ElementAverageHighLow
Temperature57.6 °F70 °F (12:58 am)45 °F (11:58 pm)
Dewpoint53.8 °F66.9 °F (12:58 am)42.1 °F (11:58 pm)
Humidity87.6 %94 % (3:37 am)67 % (9:58 am)
Wind Speed4 mph8.1 mph (4:05 am)
Wind Gust19.6 mph (3:32 pm)
Weather ElementAverage
Visibility8.2 mi
Wind DirectionENE (63.8 °)

Weather ElementTotal
Precipitation0.34 in
Heating Degree Days7.5 (Base 65)
Growing Degree Days7.5 (Base 50)
Averaged from 42 records on February 13, 2013
WEATHER CONDITIONS BREAKOUT
WIND DIRECTION BREAKOUT
WEATHER BY HOUR - FEBRUARY 13, 2013
[ °C ]   °F
Local TimeTemperatureDewpointHumidityBarometerVisibilityWind DirectionWind SpeedGust SpeedPrecipitationEventsConditions
12:58 AM70.0 °F66.9 °F90 %29.81 in7.0 miSW (230°)5.8 mph0.00 inOvercast
1:30 AM69.8 °F66.2 °F88 %29.82 in7.0 miWSW (240°)3.5 mphOvercast
1:58 AM69.1 °F66.9 °F93 %29.80 in7.0 miSW (220°)6.9 mphMostly Cloudy
2:58 AM69.1 °F66.0 °F90 %29.78 in6.0 miSW (230°)3.5 mphMostly Cloudy
3:37 AM68.0 °F66.2 °F94 %29.78 in6.0 miVariable5.8 mphMostly Cloudy
3:44 AM68.0 °F66.2 °F94 %29.79 in6.0 miSW (230°)5.8 mphOvercast
3:51 AM69.8 °F66.2 °F88 %29.79 in7.0 miSW (230°)6.9 mphMostly Cloudy
3:54 AM69.8 °F66.2 °F88 %29.79 in7.0 miSW (220°)4.6 mphOvercast
3:58 AM68.0 °F64.9 °F90 %29.78 in7.0 miSW (230°)5.8 mphMostly Cloudy
4:05 AM68.0 °F64.4 °F88 %29.80 in7.0 miSW (230°)8.1 mphMostly Cloudy
4:37 AM68.0 °F64.4 °F88 %29.81 in6.0 miVariable5.8 mphOvercast
4:46 AM64.4 °F62.6 °F94 %29.82 in6.0 miVariable6.9 mphOvercast
4:52 AM64.4 °F62.6 °F94 %29.82 in7.0 miVariable4.6 mphOvercast
4:58 AM64.0 °F61.0 °F90 %29.82 in7.0 miWNW (300°)8.1 mphOvercast
5:11 AM62.6 °F60.8 °F94 %29.83 in10.0 miVariable5.8 mphOvercast
5:35 AM62.6 °F57.2 °F82 %29.81 in10.0 miCalmScattered Clouds
5:58 AM60.1 °F55.0 °F83 %29.80 in10.0 miVariable3.5 mphClear
6:58 AM57.0 °F54.0 °F89 %29.77 in10.0 miCalmClear
7:58 AM59.0 °F51.1 °F75 %29.84 in10.0 miVariable6.9 mphScattered Clouds
8:58 AM60.1 °F50.0 °F69 %29.88 in10.0 miNW (310°)8.1 mphClear
9:58 AM60.1 °F48.9 °F67 %29.88 in10.0 miVariable4.6 mphPartly Cloudy
10:58 AM57.9 °F48.0 °F70 %29.91 in10.0 miVariable4.6 mphClear
11:58 AM57.0 °F48.0 °F72 %29.88 in10.0 miVariable5.8 mphOvercast
12:58 PM54.0 °F48.0 °F80 %29.86 in10.0 miVariable3.5 mph0.00 inRainLight Rain
1:58 PM53.1 °F48.0 °F83 %29.83 in10.0 miVariable3.5 mph0.00 inOvercast
2:33 PM51.8 °F50.0 °F94 %29.85 in4.0 miCalm0.02 inRainRain
2:51 PM51.8 °F48.2 °F88 %29.85 in10.0 miVariable3.5 mph0.02 inRainLight Rain
2:57 PM52.0 °F48.9 °F89 %29.83 in8.0 miVariable4.6 mph0.02 inRainLight Rain
3:32 PM48.2 °F46.4 °F93 %29.79 in6.0 miVariable4.6 mph19.6 mph0.03 inRainRain
3:38 PM48.2 °F46.4 °F93 %29.77 in5.0 miVariable4.6 mph0.04 inRainRain
3:43 PM48.2 °F46.4 °F93 %29.75 in6.0 miVariable5.8 mph0.04 inRainRain
3:58 PM48.0 °F45.0 °F89 %29.73 in7.0 miVariable4.6 mph0.06 inRainRain
4:15 PM48.2 °F44.6 °F87 %29.71 in5.0 miVariable5.8 mph0.03 inRainRain
4:58 PM48.0 °F46.0 °F93 %10.0 miNorth (10°)3.5 mph0.08 inRainLight Rain
5:19 PM48.2 °F46.4 °F93 %10.0 miCalm0.00 inMostly Cloudy
5:58 PM48.0 °F46.0 °F93 %10.0 miVariable3.5 mph0.00 inPartly Cloudy
6:58 PM48.0 °F45.0 °F89 %10.0 miCalmClear
7:58 PM48.0 °F45.0 °F89 %10.0 miCalmClear
8:58 PM48.0 °F45.0 °F89 %10.0 miCalmClear
9:58 PM46.9 °F45.0 °F93 %10.0 miCalmClear
10:58 PM46.9 °F44.1 °F90 %10.0 miCalmScattered Clouds
11:58 PM45.0 °F42.1 °F90 %10.0 miCalmClear
Hourly data recorded from K0J4, located miles away from Defuniak Springs, Florida







STORIES FROM OUR PARTNERS